www.pogodaiklimat.ru

Погода и климат >> Архив погоды >> Мексика >> Четумаль


ПОГОДА в Четумале

  • Прогноз погоды в Четумале
  • Монитор погоды в Четумале

АРХИВ ПОГОДЫ в Четумале

Время (UTC), дата Ветер
(напр.,м/с)
 
Видим.   Явления Облачность Т
(С)
Тd
(С)
f
(%)
Тe
(С)
Тes
(С)
Комфортность P
(гПа)
Po
(гПа)
Тmin
(С)
Tmax
(С)
R
(мм)
R24
(мм)
S
(см)
12 18.05 ЮВ 4 10 км 10/9 600 м
[Sc diur, vesp Ci fib]
+28.1 +26.5 91 +43 +43 опасность
перегрева
1010.9 1009.9 +27.0 +33.8
15 18.05 В 4 10 км 10/6 600 м
[Sc diur, vesp Ac trans Ci fib]
+30.5 +27.5 84 +49 +51 опасность
перегрева
1011.5 1010.5
18 18.05 В 5
{9}
10 км 4/1 600 м
[Cu med, cong Ac trans]
+33.4 +28.5 76 +56 +64 опасность
перегрева
1011.0 1010.0 +27.0 +33.4
21 18.05 ЮВ 5 10 км ясно +32.9 +27.6 74 +53 +59 опасность
перегрева
1009.1 1008.1
00 19.05 В 4 10 км ясно +30.3 +26.6 81 +47 +47 опасность
перегрева
1008.5 1007.5 +27.0 +33.7
03 19.05 В 4 8000 м 8/8 600 м
[Sc diur, vesp]
+29.0 +27.2 90 +46 +46 опасность
перегрева
1010.5 1009.5
06 19.05 В 5 8000 м 8/8 600 м
[Sc diur, vesp]
+28.8 +26.8 89 +45 +45 опасность
перегрева
1010.6 1009.6 +33.7
12 19.05 В 3
{9}
10 км 10/9 600 м
[Sc diur, vesp Ci fib]
+28.3 +26.2 88 +43 +43 опасность
перегрева
1010.5 1009.5 +27.4 +33.7
15 19.05 В 4
{9}
10 км 9/6 600 м
[Sc diur, vesp Ac trans Ci fib]
+30.6 +26.8 80 +48 +50 опасность
перегрева
1012.0 1011.0
18 19.05 В 5
{11}
10 км 3/3 600 м
[Cu med, cong]
+33.3 +27.9 73 +53 +62 опасность
перегрева
1011.7 1010.7 +27.4 +33.3
21 19.05 В 5 10 км 3/3 600 м
[Cu hum]
+32.5 +27.1 73 +51 +55 опасность
перегрева
1009.9 1008.9
00 20.05 В 4 10 км 1/1 600 м
[Cu hum]
+30.4 +26.6 80 +47 +47 опасность
перегрева
1009.9 1008.9 +27.4 +33.4
03 20.05 В 4 8000 м 4/3 600 м
[Sc diur, vesp Ci fib]
+28.2 +26.3 89 +43 +43 опасность
перегрева
1011.8 1010.8
06 20.05 В 4 8000 м 6/6 600 м
[Sc diur, vesp]
+27.8 +26.1 90 +42 +42 опасность
перегрева
1012.5 1011.5 +33.4
09 20.05 В 5 8000 м 6/6 600 м
[Sc diur, vesp]
+27.8 +25.7 88 +41 +41 опасность
перегрева
1010.7 1009.7
12 20.05 В 4 10 км 6/6 600 м
[Sc diur, vesp]
+28.0 +25.7 87 +41 +42 опасность
перегрева
1011.6 1010.6 +26.8 +33.4
15 20.05 ЮВ 4 10 км 4/4 600 м
[Sc diur, vesp]
+31.0 +26.7 78 +48 +53 опасность
перегрева
1013.7 1012.7
18 20.05 ЮВ 5 10 км 3/1 600 м
[Cu med, cong Ci fib]
+33.3 +27.0 70 +52 +62 опасность
перегрева
1013.0 1012.0 +26.8 +33.3
21 20.05 ЮВ 5 10 км 1/1 600 м
[Sc diur, vesp]
+33.2 +26.9 70 +51 +57 опасность
перегрева
1010.9 1009.9
00 21.05 В 5 10 км ясно +30.6 +25.7 75 +45 +45 опасность
перегрева
1010.3 1009.3 +26.8 +33.8
03 21.05 В 3 8000 м 1/1 600 м
[Sc diur, vesp]
+28.3 +25.9 87 +42 +42 опасность
перегрева
1012.3 1011.3
06 21.05 В 4 10 км 9/9 600 м
[Sc diur, vesp]
+28.2 +25.8 87 +42 +42 опасность
перегрева
1011.8 1010.8 +33.8
12 21.05 В 3 10 км 4/4 600 м
[Sc diur, vesp]
+27.6 +25.7 89 +41 +41 опасность
перегрева
1010.1 1009.1 +26.6 +33.8
15 21.05 В 4 10 км 4/4 600 м
[Sc diur, vesp]
+30.7 +26.5 78 +47 +52 опасность
перегрева
1011.1 1010.1
18 21.05 ЮВ 5 10 км 1/1 600 м
[Cu hum]
+33.1 +27.1 71 +51 +62 опасность
перегрева
1010.3 1009.3 +26.6 +33.1
21 21.05 ЮВ 4 10 км 1/1 600 м
[Sc diur, vesp]
+32.9 +27.0 71 +51 +58 опасность
перегрева
1009.0 1008.0
00 22.05 В 4 10 км 5/5 600 м
[Sc diur, vesp]
+30.2 +27.1 84 +48 +48 опасность
перегрева
1008.6 1007.6 +26.6 +33.1
03 22.05 В 5 8000 м 4/4 600 м
[Sc diur, vesp]
+28.8 +26.7 88 +45 +45 опасность
перегрева
1010.3 1009.3
06 22.05 В 5 8000 м 4/4 600 м
[Sc diur, vesp]
+28.4 +26.4 89 +43 +43 опасность
перегрева
1010.9 1009.9 +33.1
09 22.05 В 4 8000 м 9/9 600 м
[Sc diur, vesp]
+28.1 +26.1 89 +42 +42 опасность
перегрева
1009.4 1008.4
12 22.05 В 3 10 км 5/5 600 м
[Sc diur, vesp]
+27.9 +26.0 89 +42 +42 опасность
перегрева
1009.9 1008.9 +26.9 +33.1
15 22.05 ЮВ 4 10 км 3/3 600 м
[Sc diur, vesp]
+31.1 +27.4 81 +50 +56 опасность
перегрева
1011.5 1010.5
18 22.05 ЮВ 5
{11}
10 км 1/1 600 м
[Cu med, cong]
+33.7 +28.0 72 +54 +65 опасность
перегрева
1011.6 1010.6 +26.9 +33.7
21 22.05 ЮВ 4 10 км 1/1 600 м
[Sc diur, vesp]
+33.6 +28.0 73 +55 +62 опасность
перегрева
1010.7 1009.7
00 23.05 В 4 10 км {морось} 6/6 600 м
[Sc diur, vesp]
+30.4 +27.0 82 +48 +48 опасность
перегрева
1010.9 1009.9 +26.9 +33.7 0.0
03 23.05 В 3 8000 м 3/3 600 м
[Sc diur, vesp]
+28.2 +26.8 92 +44 +44 опасность
перегрева
1013.5 1012.5
06 23.05 В 4 8000 м 6/6 600 м
[Sc diur, vesp]
+28.2 +26.0 88 +42 +42 опасность
перегрева
1013.5 1012.5 +26.9 +33.7
09 23.05 В 3 8000 м 5/5 600 м
[Sc diur, vesp]
+27.8 +26.5 93 +43 +43 опасность
перегрева
1012.1 1011.1
12 23.05 В 3 10 км 4/4 600 м
[Sc diur, vesp]
+27.5 +26.4 94 +42 +42 опасность
перегрева
1012.7 1011.7 +26.5 +33.7
15 23.05 В 4
{9}
10 км 5/4 600 м
[Sc diur, vesp Ci fib]
+31.9 +26.1 71 +47 +52 опасность
перегрева
1013.8 1012.8
18 23.05 ЮВ 5 10 км 1/1 600 м
[Sc diur, vesp]
+33.7 +25.5 62 +48 +59 опасность
перегрева
1013.4 1012.4 +26.5 +33.7
21 23.05 ЮВ 5 10 км 3/3 600 м
[Sc diur, vesp]
+33.8 +25.7 63 +49 +53 опасность
перегрева
1012.0 1011.0
00 24.05 В 5 10 км 1/1 600 м
[Sc diur, vesp]
+30.9 +25.7 74 +46 +46 опасность
перегрева
1012.0 1011.0 +26.5 +34.0
03 24.05 В 5 8000 м 1/1 600 м
[Sc diur, vesp]
+28.7 +25.5 83 +42 +42 опасность
перегрева
1013.7 1012.7
09 24.05 В 2 8000 м 1/1 600 м
[Cu med, cong]
+27.2 +25.5 90 +40 +40 очень
душно
1012.3 1011.3
12 24.05 В 2 10 км 3/3 600 м
[Sc diur, vesp]
+26.4 +25.9 97 +39 +39 очень
душно
1012.5 1011.5 +25.4 +34.0 0.4
15 24.05 В 3 10 км 9/9 600 м
[Sc diur, vesp]
+30.6 +26.2 77 +46 +47 опасность
перегрева
1014.2 1013.2
18 24.05 ЮВ 3
{8}
10 км {морось} 8/8 600 м
[Sc diur, vesp]
+32.8 +26.2 68 +49 +52 опасность
перегрева
1013.3 1012.3 +25.4 +33.1 0.0
21 24.05 ЮВ 3 10 км слаб. дождь {морось} 6/6 600 м
[Sc diur, vesp]
+30.3 +26.5 80 +46 +50 опасность
перегрева
1012.0 1011.0 2
00 25.05 В 4 10 км 1/1 600 м
[Sc diur, vesp]
+30.6 +25.0 72 +44 +44 опасность
перегрева
1012.3 1011.3 +25.4 +33.3 2
03 25.05 В 3 8000 м 1/1 600 м
[Sc diur, vesp]
+27.8 +25.2 86 +40 +40 очень
душно
1014.1 1013.1

 

Местоположение метеостанции Четумаль (Мексика): широта 18.48 долгота -88.30 высота над уровнем моря 7 м.

В архиве по умолчанию представлена погода в Четумале за последнюю неделю. Архивные данные за месяц целиком и за предыдущие месяцы, начиная с января 2011 года, Вы можете получить, выбрав интересующий диапазон дат из раскрывающегося списка и нажав кнопку "Ввод!".


*Определитесь, кто Вы:
робот инопланетянин человек

Внимание! Время в таблицах - всемирное. Для получения местного времени необходимо прибавить поправку, которая равна -6 ч.

Смотрите также архив погоды в соседних городах и на ближайших метеорологических станциях:

Погода в Белизе (Белиз) (106 км)
Погода в Фелипе-Каррильо-Пуэрто (Мексика) (142 км)
Погода во Флоресе (Гватемала) (241 км)
Погода в Вальядолиде (Мексика) (245 км)
Погода в Кампече (Мексика) (281 км)
Погода на Роатане (Гондурас) (306 км)
Погода в Пуэрто-Барриосе (Гватемала) (309 км)
Погода в Мериде (Мексика) (312 км)
Погода в Мериде 2 (Мексика) (316 км)
Погода в Теле (Гондурас) (319 км)

Пояснения к столбцам:

Ветер - указаны скорость ветра в м/с - средняя за 10 мин, порывы в срок и между сроками (в фигурных скобках) и направление, откуда дует ветер: С - северный, СВ - северо-восточный, В - восточный, ЮВ - юго-восточный, Ю - южный, ЮЗ - юго-западный, З - западный, СЗ - северо-западный.
Видимость - горизонтальная дальность видимости в метрах или километрах. При видимости от 1 до 10 км при отсутствии осадков обычно наблюдается дымка, при ухудшении видимости до 1 км и менее - туман. В сухую погоду видимость может ухудшаться дымом, пылью или мглою.
Явления - указаны атмосферные явления, наблюдавшиеся в срок или в последний час перед сроком; фигурными скобками обозначены явления, наблюдавшиеся между сроками (за 1-3 часа до срока); квадратными скобками обозначены град или гололедные отложения с указанием их диаметра в мм.
Облачность - указаны через наклонную черту общая и нижняя облачность в баллах и высота нижней границы облаков в метрах; квадратными скобками обозначены формы облаков: Ci - перистые, Cs - перисто-слоистые, Cc - перисто-кучевые, Ac - высококучевые, As - высокослоистые, Sc - слоисто-кучевые, Ns - слоисто-дождевые, Cu - кучевые, Cb - кучево-дождевые. Подробнее классификацию облаков см. в Атласе облаков (PDF).
T - Температура воздуха - температура, измеренная на высоте 2 м над землей.
Td - Температура точки росы - температура, при понижении до которой содержащийся в воздухе водяной пар достигнет насыщения.
f - Относительная влажность воздуха - влажноcть воздуха, измеренная на высоте 2 м над землей.
Te - Эффективная температура - температура, которую ощущает одетый по сезону человек в тени. Характеристика душности погоды. При расчете учитывается влияние влажности воздуха и скорости ветра на теплоощущения человека.
Tes - Эффективная температура на солнце - температура, которую ощущает человек, с поправкой на солнечный нагрев. Характеристика знойности погоды. Зависит от высоты солнца над горизонтом, облачности и скорости ветра. Ночью, в пасмурную погоду, а также при ветре 12 м/с и более поправка равна нулю.
P - Атмосферное давление - приведенное к уровню моря атмосферное давление.
Po - Атмосферное давление - измеренное на уровне метеостанции атмосферное давление.
Tmin - Минимальная температура - минимум температуры воздуха на высоте 2 м над землей.
Tmax - Максимальная температура - максимум температуры воздуха на высоте 2 м над землей.
R - Количество осадков - Количество выпавших осадков за период времени, мм. При наведении курсора мыши на число - период времени, за который выпало указанное количество осадков.
R24 - Количество осадков - Количество выпавших осадков за 24 часа, мм.
S - Снежный покров - Высота снежного покрова, см. При наведении курсора мыши на число - состояние снежного покрова и степень покрытия местности в баллах.